Wind_Speed
10 8 6 3 3 4 5 9 13 18 21 24 29 28 27 29 30 35 31 34 31 21
10 10 8 5 3 3 6 10 11 14 18 17 25 27 30 31 32 32 36 31 35 25
7 7 4 2 1 2 6 9 11 14 15 16 18 22 27 27 31 30 31 33 32 21
7 6 5 4 4 4 2 6 11 12 13 14 17 19 21 24 30 28 27 28 30 22
6 6 6 6 6 5 3 1 5 9 14 15 13 18 23 26 30 30 29 28 26 23
7 8 8 7 6 9 5 2 3 7 13 18 18 20 23 26 28 29 28 25 21 19
8 9 9 7 7 9 7 8 10 14 18 20 21 21 21 25 27 26 22 18 17 17
10 11 10 10 11 11 12 13 14 18 21 24 24 23 24 21 18 18 18 18 17 14
12 12 13 14 15 14 15 19 21 21 21 19 17 15 16 19 21 23 24 24 21 18
14 15 17 17 17 18 17 18 23 26 26 25 21 19 18 18 23 24 23 21 19 19
16 17 19 22 21 20 22 23 24 25 24 23 20 20 22 23 24 24 22 21 21 23
18 20 21 22 23 24 27 27 27 26 27 27 23 22 24 28 29 27 25 23 20 18
20 22 22 22 22 23 25 26 25 24 22 24 24 23 25 27 29 27 24 19 16 14
21 21 20 22 23 23 24 25 25 26 23 23 22 21 20 20 24 24 20 18 15 12
Wind_Direction
118 117 117 149 175 205 223 230 215 207 212 217 220 221 224 219 218 206 200 196 193 192
116 120 121 119 129 202 219 215 221 224 220 218 221 221 212 209 213 203 202 198 197 198
121 116 114 94 88 235 233 221 220 218 220 216 221 219 221 198 200 193 186 179 179 191
116 111 91 73 43 11 321 243 223 223 223 209 214 214 204 192 186 179 173 175 174 157
112 110 94 77 62 53 48 41 219 216 212 211 201 197 200 184 170 167 156 150 145 150
117 106 90 81 74 56 45 36 178 184 188 184 184 180 168 171 159 154 153 156 165 167
116 104 100 101 92 80 82 103 127 136 147 154 161 165 164 155 149 145 142 149 160 157
119 111 109 108 101 101 97 97 117 130 130 127 128 137 139 140 140 140 145 153 153 150
122 114 108 102 104 108 105 103 110 117 120 120 119 135 141 137 140 139 133 129 126 123
124 116 108 105 103 108 110 110 104 106 107 104 105 116 124 134 135 133 133 131 123 114
131 120 114 108 106 108 114 114 111 109 108 106 105 121 124 125 125 122 119 118 117 115
140 129 122 114 112 112 113 113 113 114 113 109 108 120 126 126 119 112 112 114 116 116
149 139 129 123 124 123 119 115 116 110 108 112 113 121 126 126 122 115 112 107 100 101
156 147 136 135 134 131 124 120 115 112 111 111 114 120 123 125 123 118 111 108 104 94
Height
775 777 778 781 781 783 784 784 784 786 788 790 793 796 799 802 806 809 813 816 824 829
775 775 778 780 781 782 782 782 784 784 786 788 789 792 796 797 801 804 809 813 818 826
775 776 777 778 778 779 780 780 780 782 783 785 787 789 792 794 797 802 804 808 815 824
775 775 776 777 777 777 777 776 777 778 779 781 784 787 790 793 795 800 803 809 814 822
775 776 776 776 777 776 776 774 774 775 776 779 782 785 788 791 794 799 803 809 815 823
776 776 776 777 777 775 774 773 773 773 774 777 781 785 788 790 794 800 806 810 815 821
776 776 777 778 777 777 776 775 774 774 776 779 783 786 790 793 797 802 806 813 819 823
777 777 778 778 779 779 779 778 777 779 781 784 787 789 792 797 800 805 810 815 820 825
778 779 780 780 780 781 783 782 782 783 785 788 791 794 797 799 804 808 812 818 822 827
780 781 782 782 784 785 786 787 787 789 790 793 796 798 800 803 807 811 817 821 825 828
782 784 785 785 787 789 790 792 792 794 797 798 802 804 806 810 813 818 822 826 829 832
783 785 788 789 791 794 795 797 798 801 802 804 808 811 813 815 819 823 829 833 837 838
784 787 790 793 795 798 800 801 804 806 809 810 813 817 819 821 825 829 834 838 841 843
785 788 791 795 798 801 804 806 809 811 815 817 819 822 824 826 828 832 837 841 845 847